sat.trackr.live / text

‹ back to catalog

HULIANWANG DIGUI-128

NORAD 67236 · 2025-311A

PAYLOAD ACTIVE UNKNOWN

§ Identity

Operator
Country
PRC
Launch date
2025-12-25
Launch site
WSC
Launch vehicle
Mass (kg)
RCS (m²)

External: N2YO · Heavens-Above · Gunter

§ Orbital elements

Epoch: 2026-05-25T04:21:52.006752Z

Period
108.33 min
Inclination
50.0068°
Eccentricity
0.0001000
Mean motion
13.29322678 rev/d
Perigee alt
1,148.6 km
Apogee alt
1,150.1 km
Semi-major
7,527.5 km
B*
6.6340e-5
RAAN
198.0507°
Arg perigee
247.6845°
Mean anomaly
112.3922°
Rev number
2,028

§ Raw data

HULIANWANG DIGUI-1281 67236U 25311A   26145.18185193 -.00000093  00000+0  66340-4 0  99952 67236  50.0068 198.0507 0001000 247.6845 112.3922 13.29322678 20287

JSON: /api/v1/satellites/67236 · /tle

For live sub-satellite position, see the globe view (requires WebGL).

§ Visibility from observer

Set your observer location to see the next 7 days of passes ≥ 10°. The values pass through the URL so the page stays shareable.

No JS? Fill the form by hand. The geolocation button needs JavaScript.